Sigfox identifier Datetime Temperature Humidity SNR
00393901 2018-10-09 08:23:56 21 39 16.8
00393901 2018-10-09 07:16:09 21 39 17.4
00393901 2018-10-09 06:08:26 21 39 17.9
00393901 2018-10-09 05:00:39 21 39 18.1
00393901 2018-10-09 01:37:26 21 38 18.7
00393901 2018-10-09 00:29:38 21.1 38 18.9
00393901 2018-10-08 23:21:55 21.2 38 18.9
00393901 2018-10-08 22:14:13 21.1 38 19.1
00393901 2018-10-08 21:06:29 21.2 38 19.1
00393901 2018-10-08 19:58:46 21.2 37 19.1
00393901 2018-10-08 18:51:05 21.2 37 19.2
00393901 2018-10-08 17:43:22 21.2 37 19.2
00393901 2018-10-08 16:35:39 21.1 37 19.7
00393901 2018-10-08 15:27:54 21 37 19.6
00393901 2018-10-08 14:20:10 21 37 19.7
00393901 2018-10-08 13:12:30 20.9 36 19.7
00393901 2018-10-08 12:04:46 20.7 36 20
00393901 2018-10-08 10:57:02 20.5 35 20.2
00393901 2018-10-08 09:49:19 20.5 36 20.3
00393901 2018-10-08 08:41:33 20.3 36 20.3
00393901 2018-10-08 07:33:50 20.5 37 20.3
00393901 2018-10-08 06:26:03 20.5 37 20
00393901 2018-10-08 05:18:19 20.4 37 19.6
00393901 2018-10-08 04:10:35 20.5 38 19.6
00393901 2018-10-08 03:02:50 20.5 38 19.4
00393901 2018-10-08 01:55:07 20.5 38 19.1
00393901 2018-10-08 00:47:23 20.5 38 18.8
00393901 2018-10-07 23:39:40 20.5 39 19.2
00393901 2018-10-07 22:31:55 20.6 39 19.4
00393901 2018-10-07 21:24:14 20.7 39 19.2
00393901 2018-10-07 20:16:30 20.7 39 19.1
00393901 2018-10-07 19:08:46 20.7 39 19.1
00393901 2018-10-07 18:01:05 20.7 39 19
00393901 2018-10-07 16:53:15 20.6 39 19
00393901 2018-10-07 15:45:29 20.6 39 19.1
00393901 2018-10-07 14:37:42 20.6 40 19.1
00393901 2018-10-07 13:29:58 20.6 40 19
00393901 2018-10-07 12:22:14 20.6 40 18.8
00393901 2018-10-07 11:14:29 20.7 40 18.9
00393901 2018-10-07 10:06:43 20.7 40 18.9
00393901 2018-10-07 08:58:57 20.7 40 19.1
00393901 2018-10-07 07:51:10 20.7 40 18.7
00393901 2018-10-07 06:43:24 20.7 40 18.4
00393901 2018-10-07 05:35:37 20.7 40 18.5
00393901 2018-10-07 04:27:48 20.7 40 18.4
00393901 2018-10-07 03:20:01 20.7 41 18.3
00393901 2018-10-07 02:12:14 20.7 41 18.4
00393901 2018-10-07 01:04:28 20.8 41 18.5
00393901 2018-10-06 23:56:42 20.9 41 18.4
00393901 2018-10-06 22:48:58 20.9 41 18.3
00393901 2018-10-06 21:41:14 21 41 18.3
00393901 2018-10-06 20:33:26 21 41 18.4
00393901 2018-10-06 19:25:40 21 41 18
00393901 2018-10-06 18:17:53 21 41 17.9
00393901 2018-10-06 17:10:06 21 41 17.7
00393901 2018-10-06 16:02:22 21 41 17.6
00393901 2018-10-06 14:54:36 21 41 17.8
00393901 2018-10-06 13:46:48 20.9 41 17.6
00393901 2018-10-06 12:39:03 21 41 17.7
00393901 2018-10-06 11:31:13 21 41 17.6
00393901 2018-10-06 10:23:25 21 41 17.8
00393901 2018-10-06 09:15:39 21 41 18
00393901 2018-10-06 08:07:52 21 41 17.7
00393901 2018-10-06 07:00:06 21 42 17.7
00393901 2018-10-06 05:52:19 21.1 42 17.9
00393901 2018-10-06 04:44:33 21.2 42 17.5
00393901 2018-10-06 03:36:45 21.2 42 17.8
00393901 2018-10-06 02:28:59 21.2 43 18.2
00393901 2018-10-06 01:21:12 21.4 43 18.2
00393901 2018-10-06 00:13:24 21.4 43 17.7
00393901 2018-10-05 23:05:36 21.4 43 18.3
00393901 2018-10-05 21:57:49 21.6 43 18.2
00393901 2018-10-05 20:50:00 21.6 43 18.8
00393901 2018-10-05 19:42:13 21.8 44 17.2
00393901 2018-10-05 18:34:24 22 44 16.7
00393901 2018-10-05 17:26:35 22.1 45 19
00393901 2018-10-05 16:18:50 21.8 57 0